PROFILE

 METAR AND TAF INFORMATION
ADDS - METARS form results

(2300 UTC 09 December 2019)
http://aviationweather.gov/metar/data/
 
LFKB 092230Z AUTO 25009KT 220V280 CAVOK 12/04 Q1007 BECMG 32015G25KT
TAF LFKB 092000Z 0921/1021 VRB10KT 9999 NSC TX16/1012Z TN08/1005Z BECMG 0923/1001 32015G25KT BECMG 1006/1008 36010KT TEMPO 1010/1015 01015G25KT 

 AIRPORT MAP

 RUNWAY INFORMATION
Runway 16 Runway length 8266 ft Runway width 148 ft
Runway elevation 13 ft Runway displaced threshold 0 ft Runway heading 163
Runway 34 Runway length 8266 ft Runway width 148 ft
Runway elevation 26 ft Runway displaced threshold 0 ft Runway heading 343

 AIRPORT FREQUENCIES
Type AFIS Name BASTIA INF Frequency 124.725 MHZ
Type APP Name BASTIA RAD Frequency 123.825 MHZ
Type ARR Name BASTIA APP Frequency 37.85 MHZ
Type ATIS Name BASTIA ATI Frequency 125.925 MHZ
Type GND Name GND Frequency 121.825 MHZ
Type TWR Name BASTIA TWR Frequency 118 MHZ

 AIRPORT NEAR NAVIGATION AIDS
Type VOR-DME Name Bastia Frequency 114150 KHZ